Regional Weather Roundup
Issued by NWS

Home | Current Version | Previous Version | Text Only | Print | Product List | Glossary Off
Versions: 1 2 3 4 5 6 7 8 9 10 11 12 13 14 15 16 17 18 19 20 21 22 23 24 25 26 27 28 29 30 31 32 33 34 35 36 37 38 39 40 41 42 43 44 45 46 47 48 49 50

000
ASUS43 KIND 300259
RWRIN

WEATHER ROUNDUP FOR INDIANA
NATIONAL WEATHER SERVICE INDIANAPOLIS IN
1100 PM EDT FRI JUL 29 2016

NOTE: "FAIR" INDICATES FEW OR NO CLOUDS BELOW 12,000 FEET WITH NO
SIGNIFICANT WEATHER AND/OR OBSTRUCTIONS TO VISIBILITY.

* - STATION DOES NOT REPORT WEATHER SUCH AS PRECIPITATION OR FOG.

+ - STATION NOT QUALITY CONTROLLED BY THE NATIONAL WEATHER SERVICE.
    USE DATA WITH CAUTION...ESPECIALLY DEWPOINT AND RELATIVE
    HUMIDITY OBSERVATIONS.

INZ001>003-010>013-019-020-300400-
NORTHWEST INDIANA

CITY           SKY/WX    TMP DP  RH WIND       PRES   REMARKS
GARY /AIRPORT/ PTCLDY    73  73 100 E7        29.94S
KNOX *+          N/A     64  63  94 NE3       29.93F VSB 1/2
MONTICELLO +   PTCLDY    71  66  85 NE3       29.92S
RENSSELAER +   CLEAR     68  66  94 N3        29.93F

$$

LMZ046-743>745-300400-
SOUTHERN LAKE MICHIGAN

STATION/POSITION TIME  TEMP    WIND        PRES    WAVE
                       AIR SEA DIR/SP/G            HT
                 (UTC) (F)     (DEG/KT/KT) (MB)    (FT)
BURNS HARBOR     0203   71      90/  7/  9 1014.2S
MICHIGAN CITY    0200   71      50/  6/  6   N/A
5NW MICH CITY    0200   75 76   70/ 14/ 16   N/A     3

$$

INZ004-005-014>016-021>024-300400-
NORTH CENTRAL INDIANA

CITY           SKY/WX    TMP DP  RH WIND       PRES   REMARKS
GOSHEN         PTCLDY    70  66  87 SE9       29.95R
SOUTH BEND     PTCLDY    70  67  90 E6        29.95R

$$

INZ006>009-017-018-025>027-300400-
NORTHEAST INDIANA

CITY           SKY/WX    TMP DP  RH WIND       PRES   REMARKS
ANGOLA *+        N/A     68  59  73 CALM      29.97F
FORT WAYNE     PTCLDY    69  68  96 E6        29.95S

$$

INZ028-029-035-036-043>045-051>053-300400-
WEST CENTRAL INDIANA

CITY           SKY/WX    TMP DP  RH WIND       PRES   REMARKS
CRAWFORDSVL +  CLEAR     69  69 100 CALM      29.93S
GREENCASTLE +  CLEAR     68  68 100 CALM      29.94S
LAFAYETTE      PTCLDY    70  68  93 NW3       29.91S
TERRE HAUTE    CLEAR     73  69  87 CALM      29.93R

$$

INZ030>032-037>040-046>048-054>057-064-065-300400-
CENTRAL INDIANA

CITY           SKY/WX    TMP DP  RH WIND       PRES   REMARKS
INDIANAPOLIS   PTCLDY    74  68  81 E6        29.94R
-EAGLE CREEK   CLEAR     73  68  84 E3        29.93R
KOKOMO *+      PTCLDY    66  63  88 E5        29.93S
SHELBYVILLE    PTCLDY    71  67  87 CALM      29.93R
ZIONSVILLE +   CLEAR     68  67  98 CALM      29.95S

$$

INZ033-034-041-042-049-050-058-059-300400-
EAST CENTRAL INDIANA

CITY           SKY/WX    TMP DP  RH WIND       PRES   REMARKS
MUNCIE         CLEAR     71  68  90 S3        29.94R

$$

INZ060-061-067>069-081>083-085>088-300400-
SOUTHWEST INDIANA

CITY           SKY/WX    TMP DP  RH WIND       PRES   REMARKS
EVANSVILLE     CLOUDY    75  72  90 SW3       29.95R
HUNTINGBURG *+ MOCLDY    73  70  88 SE5       29.95S
WASHINGTON +   CLOUDY    73  73 100 MISG      29.94R

$$

INZ062-063-066-070>080-084-089>092-300400-
SOUTH CENTRAL AND SOUTHEAST INDIANA

CITY           SKY/WX    TMP DP  RH WIND       PRES   REMARKS
BLOOMINGTON    CLOUDY    73  69  87 W3        29.94R
MADISON *+     CLOUDY    72  70  94 SE3       29.97R

$$





USA.gov is the U.S. government's official web portal to all federal, state and local government web resources and services.